,,PA_Meas_PMT16A,,PR_Meas_QMR101_102,,RH_Meas_QMH101,,SR_Meas_QMS101,,TA_Meas_QMH101,,GenWind,,GenWind,
time,status,PA,status,PR,status,RH,status,SR,status,TA,status,DirAvg,status,SpdAvg,
2011-10-29, 00:00:04,VALID,916.247,VALID,0,VALID,96.6268,VALID,0,VALID,20.0133,VALID,153,VALID,0.803516,
2011-10-29, 00:01:04,VALID,916.227,VALID,0,VALID,96.6039,VALID,0,VALID,20.0133,VALID,156,VALID,1.62617,
2011-10-29, 00:02:04,VALID,916.187,VALID,0,VALID,96.6039,VALID,0,VALID,20.0328,VALID,184,VALID,1.42539,
2011-10-29, 00:03:04,VALID,916.159,VALID,0,VALID,96.6344,VALID,0,VALID,20.0133,VALID,174,VALID,1.23789,
2011-10-29, 00:04:04,VALID,916.1,VALID,0,VALID,96.5658,VALID,0,VALID,19.9938,VALID,181,VALID,1.94336,
2011-10-29, 00:05:04,VALID,916.089,VALID,0,VALID,96.5506,VALID,0,VALID,19.9938,VALID,174,VALID,1.71914,
2011-10-29, 00:06:04,VALID,916.073,VALID,0,VALID,96.5353,VALID,0,VALID,20.0343,VALID,167,VALID,1.27852,
2011-10-29, 00:07:04,VALID,916.046,VALID,0,VALID,96.4896,VALID,0,VALID,19.9938,VALID,172,VALID,1.87812,
2011-10-29, 00:08:04,VALID,916.02,VALID,0,VALID,96.4819,VALID,0,VALID,20.0148,VALID,174,VALID,1.38281,
2011-10-29, 00:09:04,VALID,915.992,VALID,0,VALID,96.4819,VALID,0,VALID,20.0148,VALID,171,VALID,1.54688,
2011-10-29, 00:10:04,VALID,916.014,VALID,0,VALID,96.4591,VALID,0.107441,VALID,20.0343,VALID,158,VALID,1.71094,
2011-10-29, 00:11:04,VALID,916.003,VALID,0,VALID,96.4667,VALID,0,VALID,20.0343,VALID,169,VALID,0.523438,
2011-10-29, 00:12:04,VALID,915.994,VALID,0,VALID,96.4438,VALID,0,VALID,19.9938,VALID,165,VALID,1.04492,
2011-10-29, 00:13:04,VALID,915.969,VALID,0,VALID,96.4591,VALID,0,VALID,19.9728,VALID,168,VALID,1.22773,
2011-10-29, 00:14:04,VALID,915.957,VALID,0,VALID,96.4438,VALID,0,VALID,19.9743,VALID,172,VALID,1.04336,
2011-10-29, 00:15:04,VALID,915.927,VALID,0,VALID,96.3981,VALID,0,VALID,19.9953,VALID,159,VALID,1.74141,
2011-10-29, 00:16:04,VALID,915.935,VALID,0,VALID,96.3905,VALID,0,VALID,19.9758,VALID,164,VALID,1.24336,
2011-10-29, 00:17:04,VALID,915.913,VALID,0,VALID,96.3752,VALID,0,VALID,19.9743,VALID,149,VALID,1.19766,
2011-10-29, 00:18:04,VALID,915.93,VALID,0,VALID,96.3829,VALID,0,VALID,19.9743,VALID,175,VALID,0.534375,
2011-10-29, 00:19:04,VALID,915.905,VALID,0,VALID,96.36,VALID,0.107441,VALID,19.9548,VALID,166,VALID,1.45859,
2011-10-29, 00:20:04,VALID,915.932,VALID,0,VALID,96.3829,VALID,0,VALID,19.9743,VALID,164,VALID,1.0707,
2011-10-29, 00:21:04,VALID,915.952,VALID,0,VALID,96.3295,VALID,0,VALID,19.9938,VALID,176,VALID,1.39063,
2011-10-29, 00:22:04,VALID,915.941,VALID,0,VALID,96.3295,VALID,0,VALID,19.9953,VALID,173,VALID,1.09922,
2011-10-29, 00:23:04,VALID,915.932,VALID,0,VALID,96.2533,VALID,0,VALID,19.9743,VALID,160,VALID,1.8875,
2011-10-29, 00:24:04,VALID,915.943,VALID,0,VALID,96.2228,VALID,0,VALID,20.0343,VALID,166,VALID,0.791797,
2011-10-29, 00:25:04,VALID,915.986,VALID,0,VALID,96.2151,VALID,0,VALID,20.0133,VALID,149,VALID,0.84375,
2011-10-29, 00:26:04,VALID,915.939,VALID,0,VALID,96.177,VALID,0,VALID,19.9743,VALID,176,VALID,1.07187,
2011-10-29, 00:27:04,VALID,915.976,VALID,0,VALID,96.1313,VALID,0,VALID,20.0148,VALID,174,VALID,1.0832,
2011-10-29, 00:28:04,VALID,915.98,VALID,0,VALID,96.1465,VALID,0,VALID,19.9743,VALID,174,VALID,1.4582,
2011-10-29, 00:29:04,VALID,915.955,VALID,0,VALID,96.1084,VALID,0,VALID,19.9758,VALID,178,VALID,1.43945,
2011-10-29, 00:30:04,VALID,915.99,VALID,0,VALID,96.0779,VALID,0,VALID,19.9548,VALID,177,VALID,1.26719,
2011-10-29, 00:31:04,VALID,915.948,VALID,0,VALID,96.0855,VALID,0,VALID,19.9353,VALID,177,VALID,1.02188,
2011-10-29, 00:32:04,VALID,915.949,VALID,0,VALID,96.0703,VALID,0,VALID,19.9353,VALID,177,VALID,0.853906,
2011-10-29, 00:33:04,VALID,915.892,VALID,0,VALID,96.0703,VALID,0,VALID,19.9158,VALID,177,VALID,1.02891,
2011-10-29, 00:34:04,VALID,915.88,VALID,0,VALID,95.9483,VALID,0,VALID,19.9743,VALID,167,VALID,2.53906,
2011-10-29, 00:35:04,VALID,915.846,VALID,0,VALID,95.8721,VALID,0,VALID,20.0133,VALID,169,VALID,1.69375,
2011-10-29, 00:36:04,VALID,915.824,VALID,0,VALID,95.7654,VALID,0,VALID,20.0328,VALID,185,VALID,1.71016,
2011-10-29, 00:37:04,VALID,915.793,VALID,0,VALID,95.6815,VALID,0,VALID,20.0328,VALID,177,VALID,1.55703,
2011-10-29, 00:38:04,VALID,915.765,VALID,0,VALID,95.6434,VALID,0,VALID,20.0538,VALID,185,VALID,0.678906,
2011-10-29, 00:39:04,VALID,915.747,VALID,0,VALID,95.6586,VALID,0,VALID,20.0148,VALID,185,VALID,0.863281,
2011-10-29, 00:40:04,VALID,915.781,VALID,0,VALID,95.6967,VALID,0,VALID,19.9758,VALID,185,VALID,0.356641,
2011-10-29, 00:41:04,VALID,915.75,VALID,0,VALID,95.7958,VALID,0,VALID,19.9158,VALID,185,VALID,0.348047,
2011-10-29, 00:42:04,VALID,915.733,VALID,0,VALID,95.8492,VALID,0,VALID,19.9158,VALID,185,VALID,0.664844,
2011-10-29, 00:43:04,VALID,915.74,VALID,0,VALID,95.9026,VALID,0,VALID,19.9158,VALID,185,VALID,0.549609,
2011-10-29, 00:44:04,VALID,915.743,VALID,0,VALID,95.9941,VALID,0,VALID,19.9368,VALID,186,VALID,0.111328,
2011-10-29, 00:45:04,VALID,915.76,VALID,0,VALID,96.055,VALID,0,VALID,19.9173,VALID,186,VALID,0.896484,
2011-10-29, 00:46:04,VALID,915.71,VALID,0,VALID,96.0093,VALID,0,VALID,19.8993,VALID,186,VALID,1.04844,
2011-10-29, 00:47:04,VALID,915.719,VALID,0,VALID,96.0703,VALID,0,VALID,19.8783,VALID,188,VALID,0.857422,
2011-10-29, 00:48:04,VALID,915.694,VALID,0,VALID,96.0779,VALID,0,VALID,19.8378,VALID,169,VALID,1.53281,
2011-10-29, 00:49:04,VALID,915.698,VALID,0,VALID,96.0322,VALID,0,VALID,19.8768,VALID,154,VALID,1.23281,
2011-10-29, 00:50:04,VALID,915.672,VALID,0,VALID,96.0169,VALID,0,VALID,19.9368,VALID,176,VALID,1.10859,
2011-10-29, 00:51:04,VALID,915.622,VALID,0,VALID,95.895,VALID,0,VALID,19.9353,VALID,141,VALID,1.44648,
2011-10-29, 00:52:04,VALID,915.609,VALID,0,VALID,95.8035,VALID,0,VALID,20.0133,VALID,189,VALID,1.24492,
2011-10-29, 00:53:04,VALID,915.591,VALID,0,VALID,95.6891,VALID,0,VALID,20.0538,VALID,159,VALID,0.842188,
2011-10-29, 00:54:04,VALID,915.554,VALID,0,VALID,95.5671,VALID,0,VALID,19.9953,VALID,135,VALID,1.03477,
2011-10-29, 00:55:04,VALID,915.533,VALID,0,VALID,95.5671,VALID,0,VALID,19.9563,VALID,191,VALID,1.4418,
2011-10-29, 00:56:04,VALID,915.544,VALID,0,VALID,95.5443,VALID,0,VALID,19.9368,VALID,179,VALID,1.66875,
2011-10-29, 00:57:04,VALID,915.525,VALID,0,VALID,95.5443,VALID,0,VALID,19.9743,VALID,172,VALID,0.864844,
2011-10-29, 00:58:04,VALID,915.537,VALID,0,VALID,95.5214,VALID,0,VALID,19.9938,VALID,171,VALID,0.876562,
2011-10-29, 00:59:04,VALID,915.532,VALID,0,VALID,95.4452,VALID,0,VALID,19.9938,VALID,176,VALID,1.02617,
2011-10-29, 01:00:04,VALID,915.514,VALID,0,VALID,95.3918,VALID,0,VALID,19.9938,VALID,176,VALID,0.804688,
2011-10-29, 01:01:04,VALID,915.5,VALID,0,VALID,95.4223,VALID,0,VALID,19.9743,VALID,176,VALID,1.13047,
2011-10-29, 01:02:04,VALID,915.493,VALID,0,VALID,95.3766,VALID,0,VALID,19.9953,VALID,157,VALID,0.911719,
2011-10-29, 01:03:04,VALID,915.44,VALID,0,VALID,95.2851,VALID,0,VALID,20.0148,VALID,156,VALID,1.32852,
2011-10-29, 01:04:04,VALID,915.414,VALID,0,VALID,95.247,VALID,0,VALID,19.9953,VALID,155,VALID,1.35312,
2011-10-29, 01:05:04,VALID,915.42,VALID,0,VALID,95.2851,VALID,0,VALID,19.9953,VALID,151,VALID,0.672266,
2011-10-29, 01:06:04,VALID,915.37,VALID,0,VALID,95.2393,VALID,0,VALID,19.9758,VALID,102,VALID,1.7668,
2011-10-29, 01:07:04,VALID,915.375,VALID,0,VALID,95.2012,VALID,0,VALID,19.9953,VALID,147,VALID,1.11875,
2011-10-29, 01:08:04,VALID,915.34,VALID,0,VALID,95.1783,VALID,0,VALID,19.9548,VALID,152,VALID,1.23555,
2011-10-29, 01:09:04,VALID,915.332,VALID,0,VALID,95.125,VALID,0,VALID,19.9548,VALID,91,VALID,0.973828,
2011-10-29, 01:10:04,VALID,915.31,VALID,0,VALID,95.1174,VALID,0,VALID,19.9758,VALID,83,VALID,1.47227,
2011-10-29, 01:11:04,VALID,915.29,VALID,0,VALID,95.0869,VALID,0,VALID,19.9158,VALID,128,VALID,2.65625,
2011-10-29, 01:12:04,VALID,915.303,VALID,0,VALID,94.9954,VALID,0,VALID,19.9758,VALID,90,VALID,2.2582,
2011-10-29, 01:13:04,VALID,915.275,VALID,0,VALID,94.8277,VALID,0,VALID,19.9953,VALID,80,VALID,1.10508,
2011-10-29, 01:14:04,VALID,915.295,VALID,0,VALID,94.82,VALID,0,VALID,19.9758,VALID,80,VALID,1.03984,
2011-10-29, 01:15:04,VALID,915.283,VALID,0,VALID,94.8658,VALID,0,VALID,19.9353,VALID,80,VALID,0.953516,
2011-10-29, 01:16:04,VALID,915.294,VALID,0,VALID,94.9115,VALID,0,VALID,19.9158,VALID,72,VALID,1.37461,
2011-10-29, 01:17:04,VALID,915.312,VALID,0,VALID,94.7743,VALID,0,VALID,19.9158,VALID,92,VALID,1.93125,
2011-10-29, 01:18:04,VALID,915.291,VALID,0,VALID,94.5837,VALID,0,VALID,19.9968,VALID,112,VALID,1.99102,
2011-10-29, 01:19:04,VALID,915.274,VALID,0,VALID,94.4389,VALID,0,VALID,20.0328,VALID,129,VALID,1.07813,
2011-10-29, 01:20:04,VALID,915.281,VALID,0,VALID,94.2254,VALID,0,VALID,20.0733,VALID,136,VALID,1.96641,
2011-10-29, 01:21:04,VALID,915.245,VALID,0,VALID,93.9891,VALID,0,VALID,20.1123,VALID,146,VALID,1.44648,
2011-10-29, 01:22:04,VALID,915.251,VALID,0,VALID,93.9129,VALID,0,VALID,20.1318,VALID,108,VALID,1.5293,
2011-10-29, 01:23:04,VALID,915.263,VALID,0,VALID,93.8443,VALID,0,VALID,20.0913,VALID,135,VALID,2.04375,
2011-10-29, 01:24:04,VALID,915.264,VALID,0,VALID,93.89,VALID,0,VALID,20.1108,VALID,108,VALID,1.23516,
2011-10-29, 01:25:04,VALID,915.295,VALID,0,VALID,93.89,VALID,0,VALID,20.1318,VALID,168,VALID,0.89375,
2011-10-29, 01:26:04,VALID,915.298,VALID,0,VALID,93.6003,VALID,0,VALID,20.1303,VALID,112,VALID,2.40703,
2011-10-29, 01:27:04,VALID,915.28,VALID,0,VALID,93.4631,VALID,0,VALID,20.1708,VALID,117,VALID,1.27383,
2011-10-29, 01:28:04,VALID,915.301,VALID,0,VALID,93.364,VALID,0,VALID,20.1708,VALID,118,VALID,1.75742,
2011-10-29, 01:29:04,VALID,915.302,VALID,0,VALID,93.3259,VALID,0,VALID,20.1903,VALID,125,VALID,1.23711,
2011-10-29, 01:30:04,VALID,915.276,VALID,0,VALID,93.4021,VALID,0,VALID,20.1498,VALID,105,VALID,1.47969,
2011-10-29, 01:31:04,VALID,915.297,VALID,0,VALID,93.5241,VALID,0,VALID,20.1724,VALID,119,VALID,1.09023,
2011-10-29, 01:32:04,VALID,915.253,VALID,0,VALID,93.2725,VALID,0,VALID,20.1708,VALID,104,VALID,1.65898,
2011-10-29, 01:33:04,VALID,915.259,VALID,0,VALID,93.181,VALID,0,VALID,20.1693,VALID,120,VALID,1.34492,
2011-10-29, 01:34:04,VALID,915.24,VALID,0,VALID,92.9752,VALID,0,VALID,20.2293,VALID,115,VALID,1.44766,
2011-10-29, 01:35:04,VALID,915.229,VALID,0,VALID,92.9752,VALID,0,VALID,20.1888,VALID,113,VALID,1.69531,
2011-10-29, 01:36:04,VALID,915.229,VALID,0,VALID,93.1658,VALID,0,VALID,20.1693,VALID,116,VALID,1.25625,
2011-10-29, 01:37:04,VALID,915.224,VALID,0,VALID,93.3182,VALID,0,VALID,20.1498,VALID,119,VALID,1.46055,
2011-10-29, 01:38:04,VALID,915.149,VALID,0,VALID,93.3716,VALID,0,VALID,20.1303,VALID,130,VALID,1.72656,
2011-10-29, 01:39:04,VALID,915.179,VALID,0,VALID,93.0438,VALID,0,VALID,20.1708,VALID,95,VALID,2.22773,
2011-10-29, 01:40:04,VALID,915.151,VALID,0,VALID,92.8989,VALID,0,VALID,20.1888,VALID,98,VALID,1.40859,
2011-10-29, 01:41:04,VALID,915.092,VALID,0,VALID,92.8227,VALID,0,VALID,20.1888,VALID,118,VALID,1.94766,
2011-10-29, 01:42:04,VALID,915.12,VALID,0,VALID,92.8685,VALID,0,VALID,20.1888,VALID,134,VALID,1.71289,
2011-10-29, 01:43:04,VALID,915.105,VALID,0,VALID,92.7617,VALID,0,VALID,20.2293,VALID,98,VALID,1.89102,
2011-10-29, 01:44:04,VALID,915.058,VALID,0,VALID,92.3272,VALID,0,VALID,20.3074,VALID,120,VALID,1.6125,
2011-10-29, 01:45:04,VALID,915.069,VALID,0,VALID,92.129,VALID,0,VALID,20.3269,VALID,130,VALID,1.81836,
2011-10-29, 01:46:04,VALID,915.056,VALID,0,VALID,92.1214,VALID,0,VALID,20.3058,VALID,137,VALID,1.6168,
2011-10-29, 01:47:04,VALID,915.009,VALID,0,VALID,91.824,VALID,0,VALID,20.2863,VALID,104,VALID,2.70039,
2011-10-29, 01:48:04,VALID,915.028,VALID,0,VALID,91.7173,VALID,0,VALID,20.3269,VALID,116,VALID,2.25625,
2011-10-29, 01:49:04,VALID,915,VALID,0,VALID,91.6716,VALID,0,VALID,20.3253,VALID,123,VALID,1.83477,
2011-10-29, 01:50:04,VALID,915.025,VALID,0,VALID,91.885,VALID,0,VALID,20.3448,VALID,104,VALID,1.00742,
2011-10-29, 01:51:04,VALID,915.017,VALID,0,VALID,91.6335,VALID,0,VALID,20.3448,VALID,118,VALID,1.90117,
2011-10-29, 01:52:04,VALID,914.993,VALID,0,VALID,91.4581,VALID,0,VALID,20.3854,VALID,98,VALID,1.1957,
2011-10-29, 01:53:04,VALID,914.988,VALID,0,VALID,91.8164,VALID,0,VALID,20.3448,VALID,98,VALID,0.888672,
2011-10-29, 01:54:04,VALID,914.957,VALID,0,VALID,91.946,VALID,0,VALID,20.3074,VALID,120,VALID,1.2332,
2011-10-29, 01:55:04,VALID,914.954,VALID,0,VALID,92.0223,VALID,0,VALID,20.2879,VALID,111,VALID,1.5375,
2011-10-29, 01:56:04,VALID,914.933,VALID,0,VALID,91.8469,VALID,0,VALID,20.2879,VALID,118,VALID,2.37695,
2011-10-29, 01:57:04,VALID,914.933,VALID,0,VALID,91.7554,VALID,0,VALID,20.3074,VALID,110,VALID,1.84063,
2011-10-29, 01:58:04,VALID,914.915,VALID,0,VALID,91.2294,VALID,0,VALID,20.3674,VALID,108,VALID,2.28477,
2011-10-29, 01:59:04,VALID,914.858,VALID,0,VALID,91.2752,VALID,0,VALID,20.3448,VALID,82,VALID,1.2457,
2011-10-29, 02:00:04,VALID,914.838,VALID,0,VALID,90.7491,VALID,0,VALID,20.4049,VALID,100,VALID,2.01055,
2011-10-29, 02:01:04,VALID,914.821,VALID,0,VALID,90.7263,VALID,0,VALID,20.4033,VALID,104,VALID,1.73555,
2011-10-29, 02:02:04,VALID,914.812,VALID,0,VALID,90.3527,VALID,0,VALID,20.4439,VALID,100,VALID,2.5375,
2011-10-29, 02:03:04,VALID,914.774,VALID,0,VALID,89.5904,VALID,0,VALID,20.5009,VALID,108,VALID,3.01484,
2011-10-29, 02:04:04,VALID,914.765,VALID,0,VALID,89.8343,VALID,0,VALID,20.5399,VALID,107,VALID,1.64102,
2011-10-29, 02:05:04,VALID,914.792,VALID,0,VALID,89.537,VALID,0,VALID,20.5204,VALID,98,VALID,2.1293,
2011-10-29, 02:06:04,VALID,914.741,VALID,0,VALID,90.124,VALID,0,VALID,20.5219,VALID,95,VALID,1.00781,
2011-10-29, 02:07:04,VALID,914.748,VALID,0,VALID,90.0859,VALID,0,VALID,20.4829,VALID,122,VALID,1.87617,
2011-10-29, 02:08:04,VALID,914.743,VALID,0,VALID,89.9258,VALID,0,VALID,20.4813,VALID,74,VALID,1.20977,
2011-10-29, 02:09:04,VALID,914.743,VALID,0,VALID,89.72,VALID,0,VALID,20.5024,VALID,91,VALID,1.83906,
2011-10-29, 02:10:04,VALID,914.731,VALID,0,VALID,90.124,VALID,0,VALID,20.5024,VALID,87,VALID,1.04336,
2011-10-29, 02:11:04,VALID,914.738,VALID,0,VALID,89.9563,VALID,0,VALID,20.4618,VALID,122,VALID,2.40156,
2011-10-29, 02:12:04,VALID,914.698,VALID,0,VALID,89.8496,VALID,0,VALID,20.4618,VALID,108,VALID,3.09219,
2011-10-29, 02:13:04,VALID,914.753,VALID,0,VALID,89.415,VALID,0,VALID,20.5399,VALID,114,VALID,2.38945,
2011-10-29, 02:14:04,VALID,914.734,VALID,0,VALID,89.3998,VALID,0,VALID,20.5594,VALID,103,VALID,2.03281,
2011-10-29, 02:15:04,VALID,914.717,VALID,0,VALID,89.2168,VALID,0,VALID,20.5999,VALID,121,VALID,2.31484,
2011-10-29, 02:16:04,VALID,914.679,VALID,0,VALID,89.1711,VALID,0,VALID,20.639,VALID,74,VALID,2.14922,
2011-10-29, 02:17:04,VALID,914.665,VALID,0,VALID,88.9119,VALID,0,VALID,20.5968,VALID,96,VALID,2.20547,
2011-10-29, 02:18:04,VALID,914.643,VALID,0,VALID,89.1177,VALID,0,VALID,20.5984,VALID,120,VALID,1.54336,
2011-10-29, 02:19:04,VALID,914.639,VALID,0,VALID,88.5917,VALID,0,VALID,20.6179,VALID,111,VALID,2.90117,
2011-10-29, 02:20:04,VALID,914.591,VALID,0,VALID,88.6984,VALID,0,VALID,20.639,VALID,101,VALID,2.07969,
2011-10-29, 02:21:04,VALID,914.589,VALID,0,VALID,88.7213,VALID,0,VALID,20.5984,VALID,103,VALID,2.17305,
2011-10-29, 02:22:04,VALID,914.591,VALID,0,VALID,88.8662,VALID,0,VALID,20.5984,VALID,98,VALID,1.61836,
2011-10-29, 02:23:04,VALID,914.563,VALID,0,VALID,88.6984,VALID,0,VALID,20.6179,VALID,97,VALID,2.22539,
2011-10-29, 02:24:04,VALID,914.548,VALID,0,VALID,88.8509,VALID,0,VALID,20.5789,VALID,96,VALID,2.20625,
2011-10-29, 02:25:04,VALID,914.504,VALID,0,VALID,88.8509,VALID,0,VALID,20.5789,VALID,107,VALID,2.24453,
2011-10-29, 02:26:04,VALID,914.479,VALID,0,VALID,88.8433,VALID,0,VALID,20.5999,VALID,103,VALID,2.31367,
2011-10-29, 02:27:04,VALID,914.451,VALID,0,VALID,88.7289,VALID,0,VALID,20.5999,VALID,91,VALID,1.91211,
2011-10-29, 02:28:04,VALID,914.468,VALID,0,VALID,88.6298,VALID,0,VALID,20.5789,VALID,119,VALID,2.56172,
2011-10-29, 02:29:04,VALID,914.454,VALID,0,VALID,88.3783,VALID,0,VALID,20.6569,VALID,112,VALID,1.76016,
2011-10-29, 02:30:04,VALID,914.433,VALID,0,VALID,88.3935,VALID,0,VALID,20.6585,VALID,127,VALID,2.5957,
2011-10-29, 02:31:04,VALID,914.418,VALID,0,VALID,88.2639,VALID,0,VALID,20.6569,VALID,101,VALID,2.22383,
2011-10-29, 02:32:04,VALID,914.435,VALID,0,VALID,88.0657,VALID,0,VALID,20.6569,VALID,91,VALID,2.90781,
2011-10-29, 02:33:04,VALID,914.394,VALID,0,VALID,88.3173,VALID,0,VALID,20.6179,VALID,108,VALID,3.21367,
2011-10-29, 02:34:04,VALID,914.461,VALID,0,VALID,87.7684,VALID,0,VALID,20.6374,VALID,117,VALID,3.61719,
2011-10-29, 02:35:04,VALID,914.403,VALID,0,VALID,87.4787,VALID,0,VALID,20.7365,VALID,112,VALID,3.40898,
2011-10-29, 02:36:04,VALID,914.437,VALID,0,VALID,87.7379,VALID,0,VALID,20.7755,VALID,85,VALID,1.41445,
2011-10-29, 02:37:04,VALID,914.43,VALID,0,VALID,87.6007,VALID,0,VALID,20.7349,VALID,112,VALID,2.53203,
2011-10-29, 02:38:04,VALID,914.369,VALID,0,VALID,87.1051,VALID,0,VALID,20.7544,VALID,97,VALID,2.06211,
2011-10-29, 02:39:04,VALID,914.354,VALID,0,VALID,87.4787,VALID,0,VALID,20.7934,VALID,69,VALID,1.98008,
2011-10-29, 02:40:04,VALID,914.37,VALID,0,VALID,86.9679,VALID,0,VALID,20.7755,VALID,106,VALID,2.48125,
2011-10-29, 02:41:04,VALID,914.353,VALID,0,VALID,86.9451,VALID,0,VALID,20.7934,VALID,114,VALID,2.03555,
2011-10-29, 02:42:04,VALID,914.325,VALID,0,VALID,86.7011,VALID,0,VALID,20.8129,VALID,68,VALID,3.37617,
2011-10-29, 02:43:04,VALID,914.327,VALID,0,VALID,86.6554,VALID,0,VALID,20.8324,VALID,115,VALID,2.19609,
2011-10-29, 02:44:04,VALID,914.342,VALID,0,VALID,87.0975,VALID,0,VALID,20.8519,VALID,106,VALID,2.61016,
2011-10-29, 02:45:04,VALID,914.34,VALID,0,VALID,87.433,VALID,0,VALID,20.7739,VALID,121,VALID,1.93086,
2011-10-29, 02:46:04,VALID,914.316,VALID,0,VALID,86.9146,VALID,0,VALID,20.834,VALID,107,VALID,3.02031,
2011-10-29, 02:47:04,VALID,914.333,VALID,0,VALID,86.9756,VALID,0,VALID,20.8324,VALID,147,VALID,1.65,
2011-10-29, 02:48:04,VALID,914.267,VALID,0,VALID,86.785,VALID,0,VALID,20.8324,VALID,108,VALID,2.17773,
2011-10-29, 02:49:04,VALID,914.247,VALID,0,VALID,86.5791,VALID,0,VALID,20.8714,VALID,85,VALID,2.81562,
2011-10-29, 02:50:04,VALID,914.266,VALID,0,VALID,86.8383,VALID,0,VALID,20.873,VALID,105,VALID,1.55898,
2011-10-29, 02:51:04,VALID,914.256,VALID,0,VALID,86.5182,VALID,0,VALID,20.8714,VALID,89,VALID,2.12031,
2011-10-29, 02:52:04,VALID,914.235,VALID,0,VALID,86.1598,VALID,0,VALID,20.93,VALID,100,VALID,2.49883,
2011-10-29, 02:53:04,VALID,914.212,VALID,0,VALID,86.4038,VALID,0,VALID,20.93,VALID,157,VALID,1.47422,
2011-10-29, 02:54:04,VALID,914.179,VALID,0,VALID,86.7087,VALID,0,VALID,20.9105,VALID,113,VALID,2.28516,
2011-10-29, 02:55:05,VALID,914.179,VALID,0,VALID,86.8841,VALID,0,VALID,20.8535,VALID,125,VALID,2.21953,
2011-10-29, 02:56:05,VALID,914.157,VALID,0,VALID,85.9311,VALID,0,VALID,20.912,VALID,108,VALID,3.2207,
2011-10-29, 02:57:05,VALID,914.137,VALID,0,VALID,85.9921,VALID,0,VALID,21.0291,VALID,92,VALID,2.29844,
2011-10-29, 02:58:05,VALID,914.149,VALID,0,VALID,86.2361,VALID,0,VALID,20.969,VALID,87,VALID,1.92578,
2011-10-29, 02:59:05,VALID,914.063,VALID,0,VALID,86.2589,VALID,0,VALID,20.9495,VALID,62,VALID,3.24883,
2011-10-29, 03:00:05,VALID,914.082,VALID,0,VALID,86.3962,VALID,0,VALID,20.8894,VALID,113,VALID,2.2375,
2011-10-29, 03:01:05,VALID,914.098,VALID,0,VALID,86.5334,VALID,0,VALID,20.9105,VALID,90,VALID,2.64766,
2011-10-29, 03:02:05,VALID,914.059,VALID,0,VALID,86.5105,VALID,0,VALID,20.9105,VALID,80,VALID,3.2,
2011-10-29, 03:03:05,VALID,914.075,VALID,0,VALID,85.9159,VALID,0.107441,VALID,20.9495,VALID,101,VALID,3.7793,
2011-10-29, 03:04:05,VALID,914.047,VALID,0,VALID,86.4572,VALID,0,VALID,20.9885,VALID,71,VALID,1.83867,
2011-10-29, 03:05:05,VALID,914.036,VALID,0,VALID,86.2285,VALID,0,VALID,20.969,VALID,92,VALID,2.62344,
2011-10-29, 03:06:05,VALID,914.008,VALID,0,VALID,86.2589,VALID,0,VALID,20.969,VALID,99,VALID,2.12852,
2011-10-29, 03:07:05,VALID,913.983,VALID,0,VALID,86.1217,VALID,0,VALID,20.9885,VALID,58,VALID,2.90352,
2011-10-29, 03:08:05,VALID,913.951,VALID,0,VALID,86.0912,VALID,0,VALID,20.969,VALID,78,VALID,1.83398,
2011-10-29, 03:09:05,VALID,913.929,VALID,0,VALID,86.137,VALID,0,VALID,20.9901,VALID,66,VALID,2.38086,
2011-10-29, 03:10:05,VALID,913.918,VALID,0,VALID,85.8168,VALID,0,VALID,21.008,VALID,107,VALID,3.10742,
2011-10-29, 03:11:05,VALID,913.928,VALID,0,VALID,85.7253,VALID,0,VALID,21.0275,VALID,109,VALID,2.75781,
2011-10-29, 03:12:05,VALID,913.807,VALID,0,VALID,85.7482,VALID,0,VALID,21.0275,VALID,101,VALID,3.36797,
2011-10-29, 03:13:05,VALID,913.855,VALID,0,VALID,85.9007,VALID,0,VALID,21.0275,VALID,95,VALID,2.32813,
2011-10-29, 03:14:05,VALID,913.838,VALID,0,VALID,85.6948,VALID,0,VALID,21.047,VALID,99,VALID,2.87656,
2011-10-29, 03:15:05,VALID,913.812,VALID,0,VALID,85.5424,VALID,0,VALID,21.0665,VALID,107,VALID,3.58594,
2011-10-29, 03:16:05,VALID,913.797,VALID,0,VALID,86.0074,VALID,0,VALID,21.047,VALID,83,VALID,2.71406,
2011-10-29, 03:17:05,VALID,913.746,VALID,0,VALID,85.9311,VALID,0,VALID,21.047,VALID,80,VALID,3.43906,
2011-10-29, 03:18:05,VALID,913.792,VALID,0,VALID,85.9311,VALID,0,VALID,21.0275,VALID,74,VALID,2.11016,
2011-10-29, 03:19:05,VALID,913.776,VALID,0,VALID,86.2894,VALID,0,VALID,21.008,VALID,99,VALID,2.14375,
2011-10-29, 03:20:05,VALID,913.8,VALID,0,VALID,86.4419,VALID,0,VALID,20.969,VALID,85,VALID,1.875,
2011-10-29, 03:21:05,VALID,913.814,VALID,0,VALID,86.7621,VALID,0,VALID,20.9105,VALID,103,VALID,2.09258,
2011-10-29, 03:22:05,VALID,913.763,VALID,0,VALID,87.0823,VALID,0,VALID,20.912,VALID,92,VALID,1.36719,
2011-10-29, 03:23:05,VALID,913.773,VALID,0,VALID,86.9832,VALID,0,VALID,20.8714,VALID,93,VALID,1.38164,
2011-10-29, 03:24:05,VALID,913.828,VALID,0,VALID,86.9832,VALID,0,VALID,20.8714,VALID,100,VALID,1.74727,
2011-10-29, 03:25:05,VALID,913.731,VALID,0,VALID,87.0594,VALID,0,VALID,20.8714,VALID,131,VALID,1.53164,
2011-10-29, 03:26:05,VALID,913.732,VALID,0,VALID,86.9451,VALID,0,VALID,20.8714,VALID,108,VALID,2.27695,
2011-10-29, 03:27:05,VALID,913.718,VALID,0,VALID,86.541,VALID,0,VALID,20.93,VALID,138,VALID,1.45781,
2011-10-29, 03:28:05,VALID,913.7,VALID,0,VALID,86.1751,VALID,0,VALID,20.9706,VALID,108,VALID,2.16875,
2011-10-29, 03:29:05,VALID,913.702,VALID,0,VALID,86.0379,VALID,0,VALID,21.008,VALID,78,VALID,2.84883,
2011-10-29, 03:30:05,VALID,913.643,VALID,0,VALID,85.8625,VALID,0,VALID,21.0681,VALID,112,VALID,2.73359,
2011-10-29, 03:31:05,VALID,913.671,VALID,0,VALID,85.5576,VALID,0,VALID,21.1055,VALID,62,VALID,3.10898,
2011-10-29, 03:32:05,VALID,913.649,VALID,0,VALID,85.2527,VALID,0,VALID,21.125,VALID,84,VALID,2.49453,
2011-10-29, 03:33:05,VALID,913.683,VALID,0,VALID,85.1841,VALID,0,VALID,21.125,VALID,82,VALID,2.57578,
2011-10-29, 03:34:05,VALID,913.685,VALID,0,VALID,85.367,VALID,0,VALID,21.1852,VALID,57,VALID,4.43594,
2011-10-29, 03:35:05,VALID,913.65,VALID,0,VALID,85.3289,VALID,0,VALID,21.125,VALID,69,VALID,2.01328,
2011-10-29, 03:36:05,VALID,913.623,VALID,0,VALID,84.597,VALID,0,VALID,21.1836,VALID,55,VALID,2.65508,
2011-10-29, 03:37:05,VALID,913.652,VALID,0,VALID,85.1154,VALID,0,VALID,21.2031,VALID,79,VALID,2.28242,
2011-10-29, 03:38:05,VALID,913.56,VALID,0,VALID,85.0392,VALID,0,VALID,21.125,VALID,58,VALID,3.00117,
2011-10-29, 03:39:05,VALID,913.673,VALID,0,VALID,85.5652,VALID,0.107441,VALID,21.125,VALID,71,VALID,3.43398,
2011-10-29, 03:40:05,VALID,913.589,VALID,0,VALID,85.3365,VALID,0,VALID,21.086,VALID,138,VALID,2.22617,
2011-10-29, 03:41:05,VALID,913.593,VALID,0,VALID,85.5576,VALID,0,VALID,21.1266,VALID,120,VALID,0.978125,
2011-10-29, 03:42:05,VALID,913.59,VALID,0,VALID,85.6262,VALID,0,VALID,21.1055,VALID,70,VALID,1.45273,
2011-10-29, 03:43:05,VALID,913.621,VALID,0,VALID,85.9311,VALID,0,VALID,21.0876,VALID,76,VALID,2.04023,
2011-10-29, 03:44:05,VALID,913.566,VALID,0,VALID,85.9769,VALID,0,VALID,21.008,VALID,97,VALID,1.85898,
2011-10-29, 03:45:05,VALID,913.612,VALID,0,VALID,85.7024,VALID,0,VALID,21.008,VALID,98,VALID,2.87305,
2011-10-29, 03:46:05,VALID,913.55,VALID,0,VALID,85.6872,VALID,0.107441,VALID,21.047,VALID,80,VALID,1.81797,
2011-10-29, 03:47:05,VALID,913.596,VALID,0,VALID,85.6186,VALID,0,VALID,21.0665,VALID,91,VALID,2.58906,